Regional Weather Roundup
Issued by NWS

Home | Current Version | Previous Version | Graphics & Text | Print | Product List | Glossary On
Versions: 1 2 3 4 5 6 7 8 9 10 11 12 13 14 15 16 17 18 19 20 21 22 23 24 25 26 27 28 29 30 31 32 33 34 35 36 37 38 39 40 41 42 43 44 45 46 47 48 49 50
000
ASUS43 KLOT 302303
RWRIL

ILLINOIS REGIONAL WEATHER ROUNDUP
NATIONAL WEATHER SERVICE CHICAGO/ROMEOVILLE IL
600 PM CDT SAT MAY 30 2015

NOTE: "FAIR" INDICATES FEW OR NO CLOUDS BELOW 12,000 FEET WITH NO
SIGNIFICANT WEATHER AND/OR OBSTRUCTIONS TO VISIBILITY.

* THESE STATIONS ARE NOT UNDER NWS QUALITY CONTROL. THEY ALSO MAY NOT
  REPORT WEATHER SUCH AS PRECIPITATION OR FOG.

ILZ001-002-007-009-015-016-024-310000-
NORTHWEST ILLINOIS

CITY           SKY/WX    TMP DP  RH WIND       PRES   REMARKS
MOLINE         LGT RAIN  55  51  86 NE14      30.07S FOG
STERLING*      CLOUDY    54  48  82 NE21G26   30.08S
$$

ILZ003-004-008-010-011-017-018-310000-
NORTH CENTRAL ILLINOIS

CITY           SKY/WX    TMP DP  RH WIND       PRES   REMARKS
ROCKFORD       CLOUDY    52  45  77 NE21G30   30.13R
$$

ILZ005-006-012>014-019>023-310000-
NORTHEAST ILLINOIS

CITY           SKY/WX    TMP DP  RH WIND       PRES   REMARKS
CHICAGO-OHARE  LGT RAIN  47  45  93 N21G38    30.07S
CHICAGO-MIDWAY LGT RAIN  49  46  90 N22G30    30.06F FOG
AURORA         CLOUDY    52  47  83 NE21G26   30.07R
WAUKEGAN       CLOUDY    46  42  86 N21G31    30.09S
DUPAGE AIRPORT LGT RAIN  50  46  86 NE24G38   30.06S
WHEELING       LGT RAIN  46  43  89 N23G31    30.10S
NORTHERLY ISL    N/A     46  45  96 MISG        N/A
$$

LMZ740>746-310000-
SOUTHERN LAKE MICHIGAN

STATION/POSITION SKY/WX   TEMP    WIND        PRES    VSBY  WAVE
                          AIR SEA DIR/SP/G                  HT/PER
                          (F)     (DEG/KT/KT) (MB)    (MI)  (FT/S)
SOUTHERN BUOY              42 38  360/ 23/ 27 1018.0          8/ 7
HARRISON CRIB              46     350/ 30/ 35   N/A
BURNHAM HARBOR             47     350/ 18/ 28   N/A
CALUMET HARBOR             47     340/ 17/ 23   N/A
BURNS HARBOR               48      20/ 14/ 16 1017.6S
MICHIGAN CITY              48     360/ 17/ 20   N/A
MICHIGAN CITY 6N           48 56   20/ 14/ 19   N/A           5/ 5
ST. JOSEPH                 53 57   40/ 19/ 23   N/A           5/ 4
$$

ILZ025>027-034>036-040-047-049-050-058-095>099-310000-
WEST-CENTRAL ILLINOIS

CITY           SKY/WX    TMP DP  RH WIND       PRES   REMARKS
QUINCY         CLOUDY    65  61  87 NW16      29.99S
$$

ILZ028>032-037-038-041>044-048-051>054-059>061-310000-
CENTRAL ILLINOIS

CITY           SKY/WX    TMP DP  RH WIND       PRES   REMARKS
BLOOMINGTON    LGT RAIN  57  57 100 NE25G32   29.98R
DECATUR        CLOUDY    68  65  90 N14       29.91F
PEORIA         CLOUDY    60  56  86 NE18G24   29.99R
SPRINGFIELD    CLOUDY    70  66  87 N9        29.93F
TAYLORVILLE    NOT AVBL
$$

ILZ033-039-045-046-055>057-062-063-310000-
EAST-CENTRAL ILLINOIS

CITY           SKY/WX    TMP DP  RH WIND       PRES   REMARKS
CHAMPAIGN      LGT RAIN  64  62  93 N18G32    29.92R
MATTOON        LGT RAIN  67  65  93 NW3       29.92R
$$

ILZ079-100>102-310000-
SOUTHWEST ILLINOIS

CITY           SKY/WX    TMP DP  RH WIND       PRES   REMARKS
BELLEVILLE     PTSUNNY   69  69  99 VRB6G17   29.90F
CAHOKIA*       LGT RAIN  71  67  87 NW13      29.92S
$$

ILZ064>066-069>071-074>076-080>082-084>086-088>090-092>094-310000-
SOUTH-CENTRAL ILLINOIS

CITY           SKY/WX    TMP DP  RH WIND       PRES   REMARKS
CARBONDALE     LGT RAIN  69  67  93 NW8       29.87F FOG
MARION         LGT RAIN  72  70  94 SW9       29.88F
MT. VERNON     CLOUDY    70  64  83 S5        29.89F
$$

ILZ067-068-072-073-078-083-087-091-310000-
SOUTHEAST ILLINOIS

CITY           SKY/WX    TMP DP  RH WIND       PRES   REMARKS
LAWRENCEVILLE  LGT RAIN  69  66  90 S9          N/A
$$

ABBREVIATIONS USED IN REMARKS
   TC - TEMPERATURE IN CELSIUS
  WCI - WIND CHILL INDEX
   HX - HEAT INDEX
  VSB - VISIBILITY
$$




USA.gov is the U.S. government's official web portal to all federal, state and local government web resources and services.